Regional Weather Roundup
Issued by NWS

Home | Current Version | Previous Version | Graphics & Text | Print | Product List | Glossary On
Versions: 1 2 3 4 5 6 7 8 9 10 11 12 13 14 15 16 17 18 19 20 21 22 23 24 25 26 27 28 29 30 31 32 33 34 35 36 37 38 39 40 41 42 43 44 45 46 47 48 49 50
000
ASUS43 KDMX 270207
RWRIA

WEATHER ROUNDUP FOR IOWA
NATIONAL WEATHER SERVICE DES MOINES IA
900 PM CDT TUE MAY 26 2015

NOTE: "FAIR" INDICATES FEW OR NO CLOUDS BELOW 12,000 FEET WITH NO
SIGNIFICANT WEATHER AND/OR OBSTRUCTIONS TO VISIBILITY.

* - THESE STATIONS ARE NOT NWS STATIONS...THUS NOT UNDER NWS
QUALITY CONTROL.  THEY ALSO DO NOT REPORT WEATHER SUCH
AS PRECIPITATION OR FOG.

IAZ001>003-012>014-020>022-031>034-043>046-270300-
   NORTHWEST IOWA

CITY           SKY/WX    TMP DP  RH WIND       PRES   REMARKS
CARROLL *      CLOUDY    61  57  88 NW9G15    29.84R
CHEROKEE *     CLOUDY    59  55  88 CALM      29.85R
DENISON *      CLOUDY    61  61 100 NW5       29.84R
LE MARS *      PTCLDY    63  57  82 CALM      29.86R
ORANGE CITY *  PTCLDY    59  54  82 CALM      29.85R
SHELDON *      MOCLDY    61  54  77 CALM      29.83S
SIOUX CITY     PTCLDY    63  55  75 CALM      29.86R
SPENCER        CLOUDY    59  56  89 W5        29.83S
STORM LAKE *   CLOUDY    59  55  88 NW6       29.86R
$$

IAZ055>058-069>071-079>083-090>094-270300-
   SOUTHWEST IOWA

CITY           SKY/WX    TMP DP  RH WIND       PRES   REMARKS
ATLANTIC *     PTCLDY    61  59  94 SW6       29.86R
AUDUBON *      MOCLDY    63  57  82 W3        29.86R
COUNCIL BLFS * CLEAR     63  61  94 SW5       29.87R
CRESTON *      PTCLDY    61  59  94 W8        29.86S
HARLAN  *      PTCLDY    61  61 100 W9        29.89R
LAMONI         CLEAR     66  60  81 W7        29.86R
RED OAK *      PTCLDY    64  59  82 CALM      29.87R
SHENANDOAH *   PTCLDY    64  61  88 W6        29.88R
$$

IAZ047>049-059>061-072>074-084-270300-
   CENTRAL IOWA

CITY           SKY/WX    TMP DP  RH WIND       PRES   REMARKS
AMES           MOCLDY    63  60  90 W5        29.81R
ANKENY *       MOCLDY    61  59  94 W5        29.82R
CHARITON *     PTCLDY    63  61  94 SW5       29.85R
DES MOINES     MOCLDY    65  60  84 W7        29.82R
GRINNELL*      MOCLDY    63  61  94 S7        29.82R
KNOXVILLE *    PTCLDY    64  59  82 SW6       29.82R
MARSHALLTOWN   CLOUDY    60  59  96 SW6       29.79R
PELLA *        PTCLDY    63  63 100 W5        29.84R
PERRY *        CLOUDY    63  61  94 W8        29.84R
$$

IAZ004>006-015-016-023>025-035-036-270300-
   NORTH CENTRAL IOWA

CITY           SKY/WX    TMP DP  RH WIND       PRES   REMARKS
ALGONA *       CLOUDY    61  59  94 NW6       29.83R
CLARION *      CLOUDY    61 N/A N/A NW13      29.81R
ESTHERVILLE    CLOUDY    58  55  90 N7        29.82R
FORT DODGE *   CLOUDY    61  55  82 NW5       29.83R
MASON CITY     CLOUDY    61  58  90 NW9       29.81R
FOREST CITY *  CLOUDY    57  55  94 NW7       29.81R
IOWA FALLS *   MOCLDY    63  61  94 NW8       29.81R
$$

IAZ007>011-017>019-026>030-037>042-050>054-066-270300-
   NORTHEAST IOWA

CITY           SKY/WX    TMP DP  RH WIND       PRES   REMARKS
CEDAR RAPIDS   MOCLDY    66  63  90 SW7       29.79R
CHARLES CITY * CLOUDY    61  61 100 W5        29.79S
CLINTON *      MOCLDY    66  61  82 SW9       29.82R
DECORAH *      CLOUDY    59  59 100 CALM      29.78R
DUBUQUE        CLOUDY    63  60  90 W5        29.79R
MONTICELLO *   MOCLDY    66  64  94 W8        29.79R
OELWEIN *      CLEAR     61  59  94 W5        29.79S
WATERLOO       PTCLDY    61  58  90 NW5       29.78S
$$

IAZ064-065-067-068-078-270300-
   EAST CENTRAL IOWA

CITY           SKY/WX    TMP DP  RH WIND       PRES   REMARKS
DAVENPORT      CLOUDY    67  61  81 SW7       29.81R
IOWA CITY      LGT RAIN  67  63  87 SW7       29.81R
MT. PLEASANT * CLOUDY    68  61  77 SW12      29.83R
MUSCATINE *    CLEAR     66  63  88 S6        29.81R
QUAD CITIES    CLOUDY    68  62  81 SW8       29.80R
$$

IAZ062-063-075>077-085>089-095>099-270300-
   SOUTHEAST IOWA

CITY           SKY/WX    TMP DP  RH WIND       PRES   REMARKS
BURLINGTON     CLOUDY    68  64  87 SW9       29.83R
FAIRFIELD *    PTCLDY    68  61  77 SW8       29.83R
FORT MADISON * PTCLDY    66  63  88 SW6       29.85R
KEOKUK *       PTCLDY    70  63  78 W8        29.84R
OSKALOOSA *      N/A     66  63  88 W8        29.83R
CENTERVILLE *  CLEAR     64  64 100 W7        29.87R
OTTUMWA        PTCLDY    65  62  90 SW12      29.82R
WASHINGTON *   CLOUDY    66  64  94 SW6       29.83R
$$

ABBREVIATIONS USED IN REMARKS
   TC - TEMPERATURES IN CELSIUS
  WCI - WIND CHILL INDEX
   HX - HEAT INDEX
  VSB - VISIBILITY
$$



USA.gov is the U.S. government's official web portal to all federal, state and local government web resources and services.